[[{"header":{"parameterUnit":"m.s-1","parameterCategory":1,"la1":30.2991,"la2":30.254,"lo1":-89.0895,"lo2":-89.0444,"dy":0.0017,"dx":0.0017,"nx":28,"ny":28,"refTime":"2025-12-17T03:00:00:Z","depth":0,"parameterNumber":2,"parameterNumberName":"U-component_of_WINDS"},"data":[0,0,0,0,0,0,0,0,0,0,0,0,0,0,0,0,0,0,0,0,0,0,0,0,0,0,0,0,0,0,0,0,0,0,0,0,0,0,0,0,0,0,0,0,0,0,0,0,0,0,0,0,0,0,0,0,0,0,-2.7641,-2.7642,0,-2.7735,-2.7736,-2.7737,-2.7657,-2.7654,-2.7651,-2.7648,-2.7751,-2.7757,-2.7763,0,0,0,0,0,0,0,0,0,0,0,0,0,-2.7401,-2.7405,-2.7641,-2.7642,-2.7644,-2.7735,-2.7736,-2.7738,-2.7658,-2.7654,-2.765,-2.7646,-2.7749,-2.7756,-2.7763,0,0,0,0,0,0,0,0,0,0,0,0,0,-2.7501,-2.7407,-2.7641,-2.7615,-2.7613,-2.7735,-2.7736,-2.7738,-2.7659,-2.7654,-2.7649,-2.7644,-2.7747,-2.7756,-2.7764,-2.7919,0,0,-2.7791,-2.7795,0,0,0,0,0,0,0,0,-2.7496,-2.751,-2.7617,-2.7617,-2.7615,-2.7679,-2.7689,-2.7799,-2.766,-2.7642,-2.7648,-2.7642,-2.7732,-2.7742,-2.7771,-2.7924,-2.7928,-2.7792,-2.7797,-2.7801,-2.7804,0,0,0,0,0,0,0,-2.7489,-2.7506,-2.7679,-2.7619,-2.7618,-2.7601,-2.7609,-2.771,-2.7714,-2.7643,-2.7637,-2.7649,-2.773,-2.7762,-2.7772,-2.793,-2.7792,-2.78,-2.7805,-2.7809,-2.8219,-2.8224,0,0,0,0,0,0,-2.7483,-2.75,-2.7676,-2.7681,-2.7542,-2.7609,-2.7619,-2.7664,-2.7713,-2.7715,-2.7653,-2.7645,-2.775,-2.7762,-2.7776,-2.7963,-2.7801,-2.7809,-2.7814,-2.8213,-2.822,-2.8226,0,0,0,0,0,0,-2.7479,-2.75,-2.7672,-2.7589,-2.761,-2.7619,-2.767,-2.7669,-2.77,-2.772,-2.7722,-2.7685,-2.7746,-2.7763,-2.7884,-2.7965,-2.7813,-2.7821,-2.8206,-2.8215,-2.8223,-2.8337,0,0,0,0,0,0,-2.7472,-2.7498,-2.7555,-2.7591,-2.7615,-2.7777,-2.7675,-2.7674,-2.7715,-2.7705,-2.775,-2.7753,-2.7744,-2.7872,-2.7893,-2.7975,-2.7828,-2.8199,-2.821,-2.822,-2.8326,-2.8348,-2.8367,0,0,0,0,0,-2.7464,-2.7585,-2.7559,-2.758,-2.7686,-2.7781,-2.7795,-2.778,-2.7721,-2.778,-2.7794,-2.7751,-2.7952,-2.7885,-2.7908,-2.7994,-2.8194,-2.8207,-2.8219,-2.8317,-2.8343,-2.8366,0,0,0,0,0,0,-2.756,-2.7589,-2.756,-2.7696,-2.7737,-2.7768,-2.7841,-2.7808,-2.7868,-2.7857,-2.7838,-2.7849,-2.7977,-2.7997,-2.7921,-2.8147,-2.8064,-2.8082,-2.813,-2.8156,-2.8176,-2.817,-2.7836,0,0,0,0,0,-2.7597,-2.767,-2.7692,-2.781,-2.7831,-2.7833,-2.7874,-2.7859,-2.7901,-2.7919,-2.7941,-2.7986,-2.8059,-2.8108,-2.8176,-2.8327,-2.8338,-2.8398,-2.8418,-2.8435,-2.8452,-2.8537,-2.8565,-2.8267,-2.8267,-2.8267,0,0,-2.7675,-2.7699,-2.7747,-2.783,-2.7859,-2.7938,-2.7848,-2.7935,-2.7994,-2.7933,-2.8048,-2.8066,-2.8115,-2.8253,-2.8314,-2.8274,-2.8536,-2.8451,-2.8464,-2.8472,-2.8553,-2.8581,-2.8606,-2.8276,-2.8274,-2.8273,0,0,-2.7857,-2.7881,-2.7983,-2.8014,-2.806,-2.806,-2.8085,-2.8121,-2.813,-2.8245,-2.8202,-2.8273,-2.8399,-2.8437,-2.8472,-2.867,-2.8635,-2.8693,-2.8802,-2.8884,-2.8908,-2.8929,-2.9003,-2.9029,-2.8709,-2.8709,-2.8709,0,-2.7948,-2.8063,-2.804,-2.8131,-2.817,-2.8115,-2.8221,-2.8253,-2.832,-2.835,-2.8302,-2.846,-2.8489,-2.8636,-2.8684,-2.8714,-2.8744,-2.8689,-2.8906,-2.8926,-2.8946,-2.9016,-2.9044,-2.8716,-2.8715,-2.8715,-2.8714,0,-2.8175,-2.8255,-2.8332,-2.8397,-2.8444,-2.8542,-2.8537,-2.8588,-2.8569,-2.8576,-2.8696,-2.8728,-2.8804,-2.8837,-2.8819,-2.8983,-2.8957,-2.8908,-2.8824,-2.8981,-2.9048,-2.9074,-2.8726,-2.8724,-2.8722,-2.872,0,0,-2.8422,-2.8472,-2.8501,-2.8531,-2.8577,-2.864,-2.8737,-2.8808,-2.8855,-2.8902,-2.8985,-2.9093,-2.9049,-2.909,-2.9076,-2.9148,-2.9307,-2.9091,-2.9092,-2.9133,-2.9494,-2.9533,-2.9564,-2.9283,-2.9288,-2.9292,-2.9491,0,-2.8608,-2.8773,-2.8757,-2.8915,-2.8991,-2.8941,-2.9025,-2.9065,-2.9074,-2.9142,-2.9152,-2.923,-2.9164,-2.9189,-2.9258,-2.9273,-2.938,-2.9258,-2.9364,-2.9368,-2.9356,-2.9598,-2.9639,-2.9826,-2.9516,-2.9521,-2.9524,0,-2.8848,-2.8903,-2.9069,-2.9106,-2.9137,-2.9213,-2.9279,-2.9343,-2.9388,-2.939,-2.9435,-2.941,-2.951,-2.9422,-2.9562,-2.948,-2.9522,-2.9537,-2.9544,-2.9556,-2.9458,-2.9621,-2.9884,-2.9914,-2.9564,-2.956,-2.9558,0,-2.9016,-2.9132,-2.9246,-2.9273,-2.9318,-2.9373,-2.9395,-2.9434,-2.9479,-2.9537,-2.9567,-2.9636,-2.9676,-2.9732,-2.9727,-2.9663,-2.9871,-2.9782,-2.9879,-2.988,-2.9928,-2.9926,-3.0206,-2.9949,-2.9949,-2.9948,-2.9948,0,-2.9228,-2.9333,-2.9323,-2.9394,-2.951,-2.9491,-2.9608,-2.9623,-2.9659,-2.9735,-2.9695,-2.9768,-2.9755,-2.9828,-2.9825,-2.9944,-2.9961,-2.9969,-2.9967,-2.9974,-2.9974,-3.0004,-2.9993,-2.9956,-2.9954,-2.9953,-2.9951,0,-2.9437,-2.9434,-2.9556,-2.9588,-2.9599,-2.9684,-2.9713,-2.9782,-2.9787,-2.9883,-2.9905,-2.9915,-2.9999,-2.9999,-3.0096,-3.0094,-3.0241,-3.0223,-3.0226,-3.0223,-3.0322,-3.0314,-3.0635,-3.0677,-3.0389,-3.0392,-3.0394,0,-2.9574,-2.9653,-2.9694,-2.974,-2.9765,-2.9841,-2.9886,-2.987,-2.992,-2.9978,-3.0041,-3.0121,-3.0185,-3.0323,-3.0341,-3.0416,-3.0402,-3.0509,-3.0413,-3.0419,-3.0408,-3.0405,-3.0415,-3.0529,-3.0532,-3.0535,-3.0537,0,-2.9819,-2.9814,-2.9879,-2.9946,-3.0001,-3.0053,-3.01,-3.0141,-3.0131,-3.019,-3.0275,-3.0324,-3.0422,-3.0505,-3.0577,-3.0602,-3.0571,-3.0566,-3.0593,-3.0603,-3.0603,-3.0609,-3.0281,-3.056,-3.0557,-3.0556,-3.0555,-3.0554,-2.9999,-3.0068,-3.0108,-3.0183,-3.0217,-3.0262,-3.0329,-3.0342,-3.0412,-3.049,-3.0477,-3.0573,-3.0619,-3.0712,-3.0744,-3.0821,-3.0784,-3.0823,-3.0833,-3.0844,-3.0857,-3.0588,-3.0834,-3.0833,-3.0833,-3.0832,-3.0832,0,-3.0245,-3.0268,-3.0337,-3.0405,-3.0465,-3.0425,-3.0476,-3.0531,-3.0615,-3.0658,-3.0722,-3.0821,-3.0901,-3.0924,-3.1002,-3.106,-3.1047,-3.1081,-3.1079,-3.1086,-3.0883,-3.0854,-3.109,-3.109,-3.109,-3.109,-3.109,-3.109,-3.0381,-3.0496,-3.0496,-3.0629,-3.0652,-3.0744,-3.0777,-3.0821,-3.0856,-3.0968,-3.1033,-3.1046,-3.1084,-3.1164,-3.1237,-3.1242,-3.1274,-3.1315,-3.1315,-3.1126,-3.11,-3.1075,-3.1048,-3.1321,-3.1322,-3.1512,-3.1514,-3.1515]},{"header":{"parameterUnit":"m.s-1","parameterCategory":1,"la1":30.2991,"la2":30.254,"lo1":-89.0895,"lo2":-89.0444,"dy":0.0017,"dx":0.0017,"nx":28,"ny":28,"refTime":"2025-12-17T03:00:00:Z","depth":0,"parameterNumber":3,"parameterNumberName":"V-component_of_WINDS"},"data":[0,0,0,0,0,0,0,0,0,0,0,0,0,0,0,0,0,0,0,0,0,0,0,0,0,0,0,0,0,0,0,0,0,0,0,0,0,0,0,0,0,0,0,0,0,0,0,0,0,0,0,0,0,0,0,0,0,0,-2.6441,-2.6441,0,-2.6398,-2.6398,-2.6397,-2.6312,-2.631,-2.6308,-2.6307,-2.6263,-2.6263,-2.6264,0,0,0,0,0,0,0,0,0,0,0,0,0,-2.6447,-2.6448,-2.6441,-2.6441,-2.644,-2.6399,-2.6398,-2.6397,-2.6312,-2.631,-2.6308,-2.6306,-2.6263,-2.6263,-2.6264,0,0,0,0,0,0,0,0,0,0,0,0,0,-2.6429,-2.6448,-2.6441,-2.6393,-2.6388,-2.6399,-2.6398,-2.6397,-2.6312,-2.631,-2.6307,-2.6305,-2.6263,-2.6263,-2.6264,-2.6319,0,0,-2.6266,-2.6266,0,0,0,0,0,0,0,0,-2.643,-2.6429,-2.64,-2.6396,-2.6391,-2.6358,-2.6384,-2.6371,-2.6313,-2.6341,-2.6307,-2.6304,-2.6297,-2.6294,-2.6292,-2.6317,-2.6315,-2.6266,-2.6266,-2.6266,-2.6267,0,0,0,0,0,0,0,-2.6431,-2.643,-2.6424,-2.64,-2.6394,-2.6372,-2.6367,-2.6381,-2.6334,-2.6338,-2.6332,-2.6328,-2.6293,-2.6291,-2.629,-2.6314,-2.6266,-2.6266,-2.6267,-2.6267,-2.6379,-2.6382,0,0,0,0,0,0,-2.644,-2.6432,-2.6426,-2.6423,-2.6404,-2.6374,-2.6368,-2.6371,-2.6333,-2.6325,-2.633,-2.6324,-2.6292,-2.629,-2.6288,-2.6349,-2.6266,-2.6267,-2.6267,-2.6377,-2.638,-2.6383,0,0,0,0,0,0,-2.644,-2.644,-2.6427,-2.6426,-2.6422,-2.6377,-2.6381,-2.6371,-2.6369,-2.6327,-2.6318,-2.6337,-2.6289,-2.6287,-2.6311,-2.6346,-2.6267,-2.6268,-2.6374,-2.6378,-2.6381,-2.6471,0,0,0,0,0,0,-2.6441,-2.6441,-2.6462,-2.6427,-2.6423,-2.6452,-2.6383,-2.6372,-2.6371,-2.6362,-2.6331,-2.6324,-2.6287,-2.6311,-2.6312,-2.6345,-2.6268,-2.637,-2.6375,-2.638,-2.6465,-2.6478,-2.6489,0,0,0,0,0,-2.6441,-2.649,-2.6464,-2.6463,-2.6448,-2.6454,-2.6452,-2.6409,-2.6374,-2.6394,-2.6366,-2.6325,-2.6342,-2.6314,-2.6314,-2.6349,-2.6368,-2.6374,-2.638,-2.646,-2.6475,-2.6488,0,0,0,0,0,0,-2.6531,-2.6484,-2.6455,-2.6493,-2.6478,-2.644,-2.6465,-2.6428,-2.6423,-2.6415,-2.6362,-2.6356,-2.6386,-2.637,-2.6339,-2.6398,-2.6348,-2.6354,-2.6409,-2.6423,-2.6435,-2.6438,-2.6269,0,0,0,0,0,-2.6555,-2.6565,-2.6523,-2.6561,-2.6555,-2.6511,-2.6512,-2.648,-2.6463,-2.6456,-2.643,-2.6415,-2.6416,-2.6418,-2.6418,-2.6461,-2.6453,-2.6485,-2.6497,-2.6507,-2.6513,-2.6533,-2.6547,-2.6402,-2.6402,-2.6402,0,0,-2.6606,-2.6581,-2.6591,-2.6578,-2.6563,-2.6573,-2.6506,-2.652,-2.6527,-2.6458,-2.6479,-2.6459,-2.6438,-2.6472,-2.6485,-2.6459,-2.6551,-2.6514,-2.6523,-2.6523,-2.654,-2.6554,-2.6566,-2.6406,-2.6405,-2.6404,0,0,-2.6703,-2.6685,-2.6714,-2.67,-2.6677,-2.6647,-2.6654,-2.662,-2.6604,-2.6624,-2.6572,-2.6578,-2.6583,-2.6569,-2.6563,-2.6651,-2.6612,-2.6652,-2.6715,-2.6735,-2.6746,-2.6756,-2.6786,-2.6798,-2.6658,-2.6659,-2.6659,0,-2.6768,-2.6782,-2.6734,-2.675,-2.6746,-2.6682,-2.671,-2.6699,-2.6677,-2.6675,-2.6645,-2.6648,-2.6629,-2.6658,-2.6679,-2.6676,-2.6681,-2.6656,-2.6748,-2.6758,-2.6766,-2.6795,-2.6806,-2.6664,-2.6663,-2.6663,-2.6662,0,-2.6863,-2.6873,-2.6898,-2.6878,-2.6876,-2.6899,-2.6853,-2.6857,-2.6824,-2.6797,-2.6817,-2.6791,-2.6784,-2.6788,-2.6757,-2.6811,-2.6795,-2.6758,-2.6706,-2.6786,-2.6812,-2.6822,-2.6671,-2.6669,-2.6668,-2.6666,0,0,-2.7018,-2.6968,-2.6979,-2.6968,-2.6937,-2.6943,-2.6961,-2.6953,-2.6956,-2.6943,-2.6956,-2.696,-2.6924,-2.6917,-2.6883,-2.69,-2.697,-2.686,-2.6859,-2.6881,-2.7027,-2.7056,-2.707,-2.6943,-2.6945,-2.6947,-2.7029,0,-2.7108,-2.7137,-2.7093,-2.7132,-2.7139,-2.7078,-2.7093,-2.7075,-2.705,-2.7052,-2.7023,-2.7026,-2.6979,-2.6974,-2.6988,-2.6959,-2.6999,-2.6952,-2.6955,-2.6956,-2.6963,-2.7083,-2.7114,-2.7194,-2.7039,-2.7041,-2.7042,0,-2.7218,-2.7208,-2.7248,-2.7212,-2.7213,-2.7228,-2.7215,-2.7218,-2.7196,-2.7175,-2.7166,-2.7125,-2.7139,-2.7088,-2.7106,-2.7075,-2.7073,-2.7058,-2.706,-2.706,-2.7004,-2.7086,-2.7218,-2.723,-2.7057,-2.7056,-2.7055,0,-2.7326,-2.7323,-2.7346,-2.7338,-2.7297,-2.7309,-2.7292,-2.7266,-2.7263,-2.7252,-2.7249,-2.724,-2.7235,-2.7228,-2.7185,-2.7152,-2.7208,-2.7153,-2.7191,-2.7192,-2.7206,-2.7206,-2.734,-2.7205,-2.7204,-2.7204,-2.7204,0,-2.7432,-2.7458,-2.7394,-2.7408,-2.7435,-2.7383,-2.7411,-2.7388,-2.7365,-2.7373,-2.7318,-2.7327,-2.7269,-2.727,-2.7237,-2.7256,-2.7254,-2.7238,-2.7228,-2.7243,-2.7245,-2.7241,-2.7235,-2.7207,-2.7207,-2.7206,-2.7206,0,-2.7559,-2.7516,-2.7537,-2.7495,-2.7485,-2.7507,-2.747,-2.7481,-2.745,-2.7461,-2.746,-2.7412,-2.7411,-2.7367,-2.7357,-2.7333,-2.7367,-2.7347,-2.7375,-2.7368,-2.7408,-2.7405,-2.7545,-2.756,-2.7415,-2.7417,-2.7418,0,-2.7629,-2.7648,-2.7607,-2.7608,-2.7594,-2.7596,-2.7592,-2.7541,-2.7539,-2.7512,-2.7526,-2.752,-2.7512,-2.7513,-2.7477,-2.7468,-2.7448,-2.7497,-2.7446,-2.7459,-2.7448,-2.7448,-2.7449,-2.7508,-2.751,-2.7512,-2.7513,0,-2.7759,-2.7736,-2.7733,-2.7721,-2.7718,-2.7706,-2.7691,-2.7695,-2.7638,-2.7638,-2.7636,-2.763,-2.7618,-2.7612,-2.7596,-2.7577,-2.7536,-2.7529,-2.7537,-2.7552,-2.7567,-2.7559,-2.7404,-2.7526,-2.7525,-2.7524,-2.7523,-2.7523,-2.7859,-2.7872,-2.7845,-2.7842,-2.7825,-2.7812,-2.7819,-2.7788,-2.7786,-2.7772,-2.7741,-2.7743,-2.7717,-2.7691,-2.7675,-2.7675,-2.765,-2.7662,-2.7665,-2.7669,-2.7677,-2.7567,-2.7672,-2.7672,-2.7671,-2.7671,-2.7671,0,-2.7986,-2.7965,-2.7962,-2.7942,-2.794,-2.7899,-2.7879,-2.788,-2.7882,-2.7861,-2.7854,-2.785,-2.7843,-2.7806,-2.7795,-2.7802,-2.7782,-2.7801,-2.78,-2.7796,-2.77,-2.7694,-2.7816,-2.7816,-2.7816,-2.7816,-2.7816,-2.7816,-2.8052,-2.8071,-2.8045,-2.8054,-2.8032,-2.8033,-2.8025,-2.8012,-2.7995,-2.7993,-2.7986,-2.7962,-2.7933,-2.7919,-2.791,-2.7899,-2.7898,-2.7923,-2.7905,-2.7817,-2.7803,-2.779,-2.7784,-2.7923,-2.7923,-2.8001,-2.8002,-2.8002]}]]